Location: Stanford
(52.2833°N, 2.4333°W)
Time: 01:31:01
(UTC+00:00)

USA 267 - Pass Details

Date: 22 January 2021
Orbit: 1102 x 1106 km, 123.0° (Epoch: 22 February)

Event Time Altitude Azimuth Distance (km) Brightness Sun altitude
Exits shadow 20:10:23 29° 187° (S) 1,899 4.4 -31.8°
Drops below altitude 10° 20:13:44 10° 207° (SSW) 2,956 5.7 -32.3°
Sets 20:16:21 0° 214° (SW) 3,911 6.4 -32.7°
